Weather History for Torreon, Mexico

Change the Weather History Date:

Tuesday, November 27, 2012

  Actual Average Record
Temperature  
Mean Temperature 62 °F -  
Max Temperature 73 °F 69 °F 87 °F (1997)
Min Temperature 50 °F 44 °F 37 °F (2011)
Degree Days  
Heating Degree Days 4    
Growing Degree Days 12 (Base 50)    
Moisture  
Dew Point 51 °F    
Average Humidity 71    
Maximum Humidity 95    
Minimum Humidity 49    
Precipitation  
Precipitation 0.00 in - - ()
Sea Level Pressure  
Sea Level Pressure 30.23 in    
Wind  
Wind Speed 1 mph ()    
Max Wind Speed 5 mph    
Max Gust Speed -    
Visibility 9.5 miles    
Events      
Averages and records for this station are not official NWS values.
T = Trace of Precipitation, MM = Missing Value Source: Averaged Metar Reports

Daily Weather History Graph

Daily Weather History Graph

Search for Another Location

Airport:

Trip Planner

Search our weather history database for the weather conditions in past years. The results will help you decide how hot, cold, wet, or windy it might be!

Date:

Astronomy

Nov. 27, 2012 Rise Set
Actual Time 7:20 AM CST 6:02 PM CST
Civil Twilight 6:55 AM CST 6:27 PM CST
Nautical Twilight 6:27 AM CST 6:55 PM CST
Astronomical Twilight 5:59 AM CST 7:23 PM CST
Moon 5:34 PM CST (11/27) 6:29 AM CST (11/27)
Length of Visible Light 11h 31m
Length of Day
10h 42m
Waxing Gibbous, 99% of the Moon is Illuminated
Nov 27
Waxing Gibbous
Nov 28
Full
Dec 6
Last Quarter
Dec 13
New
Dec 19
First Quarter

Hourly Weather History & Observations

Time (CST) Temp. Dew Point Humidity Pressure Visibility Wind Dir Wind Speed Gust Speed Precip Events Conditions
12:05 AM 56 °F 55 °F 95% 30.09 in 6 mi ESE 2.2 mph - -   Partly Cloudy
2:50 AM 54 °F 52 °F 91% 30.12 in 6 mi East 2.2 mph - -  
5:55 AM 52 °F 50 °F 92% 30.16 in 6 mi NNW 2.2 mph - -  
6:48 AM 48.2 °F 46.4 °F 93% 30.28 in 8.0 mi Calm Calm - N/A   Mostly Cloudy
7:40 AM 48.2 °F 46.4 °F 93% 30.31 in 10.0 mi Calm Calm - N/A   Mostly Cloudy
8:45 AM 53 °F 50 °F 86% 30.27 in 19 mi NNW 2.2 mph - -   Mostly Cloudy
9:48 AM 55.4 °F 50.0 °F 82% 30.38 in 5.0 mi Calm Calm - N/A   Scattered Clouds
9:49 AM 51.8 °F 46.4 °F 82% 30.29 in 6.0 mi Calm Calm - N/A   Mostly Cloudy
10:44 AM 59.0 °F 51.8 °F 77% 30.38 in 5.0 mi NW 3.5 mph - N/A   Scattered Clouds
11:49 AM 62.6 °F 51.8 °F 68% 30.29 in 6.0 mi Calm Calm - N/A   Scattered Clouds
11:50 AM 65 °F 57 °F 68% 30.29 in 19 mi North 4.5 mph - -   Scattered Clouds
1:40 PM 66.2 °F 51.8 °F 60% 30.29 in 7.0 mi NE 4.6 mph - N/A   Mostly Cloudy
2:44 PM 68.0 °F 50.0 °F 52% 30.17 in 7.0 mi Calm Calm - N/A   Mostly Cloudy
2:48 PM 71 °F 58 °F 54% 30.16 in 19 mi East 2.2 mph - -   Mostly Cloudy
3:40 PM 68.0 °F 51.8 °F 56% 30.25 in 8.0 mi Calm Calm - N/A   Mostly Cloudy
4:48 PM 69.8 °F 50.0 °F 49% 30.24 in 10.0 mi NNE 4.6 mph - N/A   Mostly Cloudy
5:48 PM 69 °F 58 °F 58% 30.11 in 19 mi East 2.2 mph - -   Clear
5:50 PM 66.2 °F 50.0 °F 56% 30.16 in 10.0 mi Calm Calm - N/A   Mostly Cloudy
6:50 PM 64.4 °F 48.2 °F 56% 30.25 in 10.0 mi Calm Calm - N/A   Mostly Cloudy
7:44 PM 62.6 °F 50.0 °F 63% 30.26 in 10.0 mi Calm Calm - N/A   Mostly Cloudy
8:49 PM 60.8 °F 50.0 °F 68% 30.19 in 10.0 mi NW 3.5 mph - N/A   Scattered Clouds
8:52 PM 63 °F 57 °F 76% 30.11 in 6 mi North 2.2 mph - -   Clear
9:46 PM 59.0 °F 48.2 °F 67% 30.29 in 10.0 mi NW 2.3 mph - N/A   Scattered Clouds
10:43 PM 57.2 °F 48.2 °F 72% 30.29 in 10.0 mi Calm Calm - N/A   Clear
11:50 PM 60 °F 53 °F 70% 30.13 in 6 mi NNE 2.2 mph - -